This demonstration page uses our WeatherBlox Daily Observations layout. Learn more.

Left ArrowRight Arrow

53.62937, 11.41316

Hourly Observations for October 5, 2022

Temp ( °F °C ) Dew Point ( °F °C ) Humidity (%) Winds ( mph kmh ) Pressure ( in mb ) Visibility ( mi km ) Precip ( " mm )
12:20 am 00:20 Partly Cloudy 54 12 48 9 82 82 VRB 3 6 30.03 1017 6 10 0.00 0.00
12:50 am 00:50 Mostly Clear 54 12 48 9 82 82 SSW 5 7 30.00 1016 6 10 0.00 0.00
1:20 am 01:20 Partly Cloudy 54 12 48 9 82 82 SSW 5 7 30.00 1016 6 10 0.00 0.00
1:50 am 01:50 Mostly Clear 54 12 48 9 82 82 VRB 5 7 30.00 1016 6 10 0.00 0.00
2:20 am 02:20 Partly Cloudy 54 12 48 9 82 82 VRB 3 6 30.00 1016 6 10 0.00 0.00
2:50 am 02:50 Mostly Cloudy 54 12 48 9 82 82 SSW 6 9 30.00 1016 6 10 0.00 0.00
3:20 am 03:20 Mostly Cloudy 54 12 48 9 82 82 SSW 5 7 30.00 1016 6 10 0.00 0.00
3:50 am 03:50 Mostly Cloudy 54 12 48 9 82 82 SSW 6 9 29.97 1015 6 10 0.00 0.00
4:20 am 04:20 Cloudy 54 12 48 9 82 82 VRB 5 7 29.97 1015 6 10 0.00 0.00
4:50 am 04:50 Cloudy 54 12 48 9 82 82 VRB 6 9 29.97 1015 6 10 0.00 0.00
5:20 am 05:20 Cloudy 54 12 48 9 82 82 VRB 5 7 29.97 1015 6 10 0.00 0.00
5:50 am 05:50 Mostly Cloudy 54 12 48 9 82 82 SSW 6 9 29.97 1015 6 10 0.00 0.00
6:20 am 06:20 Cloudy 54 12 50 10 88 88 SSW 6 9 29.94 1014 6 10 0.00 0.00
6:50 am 06:50 Cloudy 55 13 50 10 82 82 VRB 6 9 29.94 1014 6 10 0.00 0.00
7:20 am 07:20 Cloudy 55 13 50 10 82 82 VRB 6 9 29.94 1014 6 10 0.00 0.00
7:50 am 07:50 Mostly Cloudy 55 13 50 10 82 82 SSW 5 7 29.94 1014 6 10 0.00 0.00
8:20 am 08:20 Mostly Cloudy 55 13 50 10 82 82 SSW 6 9 29.94 1014 6 10 0.00 0.00
8:50 am 08:50 Mostly Cloudy 55 13 50 10 82 82 VRB 6 9 29.94 1014 6 10 0.00 0.00
9:20 am 09:20 Mostly Sunny 55 13 50 10 82 82 SSW 6 9 29.94 1014 6 10 0.00 0.00
9:50 am 09:50 Mostly Sunny 57 14 52 11 82 82 VRB 5 7 29.94 1014 6 10 0.00 0.00
10:20 am 10:20 Partly Cloudy 57 14 52 11 82 82 VRB 6 9 29.94 1014 6 10 0.00 0.00
10:50 am 10:50 Cloudy 59 15 52 11 77 77 VRB 6 9 29.94 1014 6 10 0.00 0.00
11:20 am 11:20 Mostly Cloudy 59 15 52 11 77 77 SSW 6 9 29.94 1014 6 10 0.00 0.00
11:50 am 11:50 Mostly Cloudy 59 15 54 12 82 82 VRB 6 9 29.94 1014 6 10 0.00 0.00
12:20 pm 12:20 Mostly Cloudy 61 16 52 11 72 72 VRB 7 11 29.94 1014 6 10 0.00 0.00
12:50 pm 12:50 Mostly Cloudy 61 16 52 11 72 72 VRB 7 11 29.91 1013 6 10 0.00 0.00
1:20 pm 13:20 Mostly Cloudy 61 16 52 11 72 72 VRB 8 13 29.94 1014 6 10 0.00 0.00
1:50 pm 13:50 Mostly Cloudy 61 16 52 11 72 72 VRB 7 11 29.91 1013 6 10 0.00 0.00
2:20 pm 14:20 Mostly Cloudy 61 16 52 11 72 72 VRB 7 11 29.91 1013 6 10 0.00 0.00
2:50 pm 14:50 Mostly Cloudy 61 16 52 11 72 72 VRB 6 9 29.91 1013 6 10 0.00 0.00
3:20 pm 15:20 Mostly Cloudy 61 16 52 11 72 72 VRB 7 11 29.88 1012 6 10 0.00 0.00
3:50 pm 15:50 Mostly Cloudy 63 17 52 11 68 68 VRB 7 11 29.88 1012 6 10 0.00 0.00
4:20 pm 16:20 Mostly Cloudy 61 16 52 11 72 72 VRB 6 9 29.88 1012 6 10 0.00 0.00
4:50 pm 16:50 Mostly Cloudy 63 17 52 11 68 68 VRB 5 7 29.88 1012 6 10 0.00 0.00
5:20 pm 17:20 Mostly Cloudy 63 17 52 11 68 68 VRB 5 7 29.88 1012 6 10 0.00 0.00
5:50 pm 17:50 Mostly Cloudy 61 16 54 12 77 77 VRB 3 6 29.88 1012 6 10 0.00 0.00
6:20 pm 18:20 Mostly Cloudy 63 17 54 12 72 72 SSW 6 9 29.85 1011 6 10 0.00 0.00
6:50 pm 18:50 Mostly Cloudy 61 16 54 12 77 77 VRB 5 7 29.88 1012 6 10 0.00 0.00
7:20 pm 19:20 Mostly Cloudy 61 16 54 12 77 77 VRB 5 7 29.88 1012 6 10 0.00 0.00
7:50 pm 19:50 Mostly Cloudy 61 16 54 12 77 77 VRB 5 7 29.88 1012 6 10 0.00 0.00
8:20 pm 20:20 Mostly Cloudy 61 16 54 12 77 77 SSW 6 9 29.88 1012 6 10 0.00 0.00
8:50 pm 20:50 Cloudy 61 16 52 11 72 72 SSW 7 11 29.88 1012 6 10 0.00 0.00
9:20 pm 21:20 Cloudy 61 16 52 11 72 72 VRB 6 9 29.88 1012 6 10 0.00 0.00
9:50 pm 21:50 Mostly Cloudy 59 15 52 11 77 77 SSW 6 9 29.88 1012 6 10 0.00 0.00
10:20 pm 22:20 Mostly Clear 59 15 52 11 77 77 VRB 6 9 29.88 1012 6 10 0.00 0.00
10:50 pm 22:50 Cloudy 59 15 52 11 77 77 VRB 5 7 29.88 1012 6 10 0.00 0.00
11:20 pm 23:20 Mostly Cloudy 61 16 52 11 72 72 VRB 6 9 29.88 1012 6 10 0.00 0.00
11:50 pm 23:50 Mostly Clear 59 15 52 11 77 77 VRB 5 7 29.88 1012 6 10 0.00 0.00

Powered by AerisWeather